Meteo Giornale » Osservazioni meteo Gran Bretagna » Northolt

ore: 14:50 - Osservazioni Meteo Northolt
Lat. 51° 33' N Lon. 0° 25' W Alt. 38 metri s.l.m.

molto_nuvoloso Europe/London

16 °C

Rovescio nelle Vicinanze

Temp. 24 Ore

10 °C

19 °C

Sud/Sud-Ovest

24 Km/h

Dew point 13 °C

Umidità 82 %

Visibilità  10 Km

Il sole sorge alle ore 06:56

Il sole tramonta alle ore 18:48

Data e Ora Cielo e Fenomeni T °C DP °C Um. % Pres. hPa Vis. km Vento km/h
Oggi h: 14:50 molto_nuvoloso Rovescio nelle Vicinanze 16 13 82 1014 10 S/SO 24
Oggi h: 14:20 molto_nuvoloso Rovescio nelle Vicinanze 14 11 82 1014 5 S/SO 27.8
Oggi h: 14:14 nuvoloso_piovaschi Rovescio di Pioggia 15 12 82 1015 4 S/SO 24
Oggi h: 13:50 molto_nuvoloso Rovescio nelle Vicinanze 15 13 87 1015 10 S/SO 29.6
Oggi h: 13:19 nuvoloso Rovescio nelle Vicinanze 17 11 67 1015 10 S 29.6
Oggi h: 12:50 nuvoloso Rovescio nelle Vicinanze 18 12 67 1015 10 S/SO 33.3
Oggi h: 12:20 nuvoloso Nuvoloso 18 11 63 1016 10 S 24
Oggi h: 11:50 nuvoloso Nuvoloso 17 11 67 1016 10 S 18.5
Oggi h: 11:20 nuvoloso Nuvoloso 17 12 72 1017 10 S 18.5
Oggi h: 10:50 molto_nuvoloso Rovescio nelle Vicinanze 17 12 72 1017 10 S/SO 16.7
Oggi h: 10:20 molto_nuvoloso Molto Nuvoloso 15 11 76 1017 10 S 16.7
Oggi h: 09:50 molto_nuvoloso Molto Nuvoloso 15 11 76 1018 10 S 13
Oggi h: 09:20 molto_nuvoloso Molto Nuvoloso 14 11 82 1018 10 S 14.8
Oggi h: 08:50 molto_nuvoloso Molto Nuvoloso 13 11 87 1018 10 S/SE 13
Oggi h: 08:20 molto_nuvoloso Molto Nuvoloso 13 10 81 1018 10 S/SE 9.3
Oggi h: 07:50 molto_nuvoloso Molto Nuvoloso 12 10 87 1018 10 S 9.3
Oggi h: 07:23 molto_nuvoloso Molto Nuvoloso 12 10 87 1018 10 S 7.4
Oggi h: 06:50 molto_nuvoloso Molto Nuvoloso 11 9 87 1018 10 S/SE 7.4
Oggi h: 06:26 sereno Sereno 11 9 87 1018 10 S/SE 9.3
Oggi h: 05:50 molto_nuvoloso Molto Nuvoloso 11 9 87 1018 10 S 7.4
Oggi h: 03:50 sereno Sereno 10 8 87 1018 10 S/SO 11.1
Oggi h: 02:50 sereno Sereno 10 8 87 1018 10 S/SO 9.3
Oggi h: 01:50 sereno Sereno 10 8 87 1019 10 S/SO 11.1
Oggi h: 00:50 sereno Sereno 11 8 81 1019 10 N 5.5
Ieri h: 23:50 sereno Sereno 11 8 81 1018 10 S/SO 9.3
Ieri h: 23:20 sereno Sereno 12 8 76 1018 10 O/SO 11.1
Ieri h: 22:50 sereno Sereno 12 8 76 1018 10 SO 14.8
Ieri h: 22:20 sereno Sereno 12 8 76 1018 10 SO 13
Ieri h: 21:50 sereno Sereno 12 8 76 1017 10 SO 11.1
Ieri h: 21:20 sereno Sereno 12 8 76 1017 10 SO 13
Ieri h: 20:50 sereno Sereno 12 7 71 1017 10 SO 7.4
Ieri h: 20:20 sereno Sereno 13 7 66 1016 10 O/SO 13
Ieri h: 19:50 sereno Sereno 14 7 62 1016 10 O/SO 13
Ieri h: 19:20 poco_nuvoloso Poco Nuvoloso 14 7 62 1015 10 O/SO 14.8
Ieri h: 18:50 molto_nuvoloso Molto Nuvoloso 15 7 58 1015 10 O/SO 16.7
Ieri h: 18:20 sereno Sereno 16 6 51 1014 10 O/SO 20.3
Ieri h: 17:50 sereno Sereno 17 6 48 1014 10 O/SO 22.2
Ieri h: 17:20 sereno Sereno 17 6 48 1013 10 O/SO 22.2
Ieri h: 16:50 sereno Sereno 18 5 42 1013 10 O 27.8
Ieri h: 15:50 poco_nuvoloso Poco Nuvoloso 19 7 45 1012 10 O 24